Location: Suburban Lights Observatory
(43.1572°N, 89.2764°W)
Time: 07:53:58
(UTC-05:00)

Daily predictions for brighter satellites

Satellite Brightness Start Highest point End
(mag) Time Altitude Azimuth Time Altitude Azimuth Time Altitude Azimuth
Cosmos 2112 Rocket 4.2 20:49:23 10° S 20:54:26 52° ESE 20:59:28 10° NNE
ISS -3.7 20:54:15 10° SW 20:57:28 54° SE 21:00:42 10° ENE
Cosmos 1818 4.4 20:52:12 10° SW 20:57:33 58° NW 21:02:57 10° NNE
Cosmos 1346 2.8 20:55:24 10° S 20:58:08 60° E 21:00:52 10° NNE
Aureole 3 Rocket 3.6 20:52:27 10° S 20:58:33 61° E 21:02:55 10° NNE
OAO 2 Rocket 4.2 20:55:47 10° WSW 21:00:09 32° S 21:04:34 10° ESE
ASTEX 1 3.9 20:56:39 10° SSE 21:01:15 42° ENE 21:05:51 10° N
H-2A R/B 3.8 21:01:07 10° E 21:04:08 16° ENE 21:07:14 10° NNE
Helios 1A 3.1 21:01:07 10° S 21:05:20 80° WSW 21:09:34 10° NNW
SJ-11-01 4.3 21:01:01 10° SSE 21:05:42 85° ENE 21:10:25 10° NNW
SAR-Lupe-4 3.6 21:02:42 10° SSE 21:06:18 88° E 21:09:55 10° NNW
SL-27 R/B 2.6 21:03:34 10° S 21:07:10 57° ESE 21:10:45 10° NNE
Cosmos 1939 Rocket 2.8 21:05:57 10° SSE 21:09:48 86° WSW 21:13:42 10° NNW
YAOGAN 6 2.7 21:07:13 10° SSE 21:10:38 56° ENE 21:14:05 10° N
Cosmos 1666 2.6 21:07:40 10° N 21:11:27 81° E 21:15:11 10° S
Meteor 2-9 Rocket 4.3 21:07:10 10° N 21:12:39 66° ENE 21:18:14 10° SSE
USA 81 4.5 21:07:26 10° SSW 21:12:41 69° W 21:17:58 10° N
Meteor 2-13 Rocket 4.5 21:09:24 10° N 21:15:31 90° W 21:21:36 10° S
Cosmos 1680 Rocket 3.6 21:11:43 10° SSW 21:16:57 85° WNW 21:22:12 10° NNE
Okean 1-7 Rocket 3.8 21:13:29 10° S 21:17:50 54° E 21:22:15 10° NNE
DNEPR-1 R/B 3.9 21:13:52 10° NW 21:18:05 63° WSW 21:22:40 10° SSE
Intercosmos 24 4.2 21:16:02 10° N 21:19:45 43° ENE 21:22:55 12° SSE
Cosmos 2056 Rocket 4.0 21:14:51 10° N 21:19:49 44° ENE 21:24:17 12° SE
Cosmos 1437 Rocket 3.4 21:18:31 10° N 21:22:08 38° ENE 21:25:17 13° SE
Cosmos 1833 Rocket 4.1 21:19:02 11° SE 21:22:24 17° E 21:25:58 10° ENE
SAR-Lupe-1 4.4 21:19:06 10° S 21:22:40 68° WSW 21:26:16 10° NNW
Envisat 3.8 21:20:36 10° S 21:25:32 52° W 21:30:31 10° NNW
Helios 1B rocket 3.1 21:23:04 10° N 21:27:09 59° WNW 21:31:13 10° SSW
MetOp-A 4.4 21:23:25 11° SSE 21:28:31 56° ENE 21:33:45 10° N
Cosmos 1606 Rocket 4.0 21:25:43 10° N 21:29:51 43° ENE 21:33:15 14° SE
Meteor 2-4 Rocket 3.8 21:24:16 10° S 21:29:55 90° W 21:35:47 10° N
PSLV R/B 3.8 21:28:08 10° W 21:31:03 36° SSW 21:32:59 18° SE
Cosmos 192 4.5 21:31:41 10° SSW 21:36:35 79° WNW 21:41:30 10° NNE
Cosmos 405 3.1 21:33:30 10° NNW 21:37:04 76° W 21:40:27 11° S
Cosmos 1726 Rocket 3.9 21:35:25 10° N 21:39:36 46° ENE 21:42:37 17° SE
Cosmos 1025 Rocket 2.9 21:37:46 10° S 21:42:02 89° E 21:46:20 10° N
USA 245 3.2 21:42:20 23° ESE 21:43:12 29° ENE 21:45:19 10° N
Cosmos 1515 4.1 21:40:58 16° SSE 21:43:43 42° E 21:47:20 10° NNE
COSMOS 2487 3.5 21:43:44 19° SE 21:45:23 28° ESE 21:48:30 10° NE
CZ-3A R/B 0.6 21:44:47 10° SSW 21:48:21 36° SE 21:48:50 31° ESE
Cosmos 1452 Rocket 4.4 21:46:52 10° N 21:51:45 37° ENE 21:55:04 18° ESE
Cosmos 1980 Rocket 3.9 21:48:01 10° N 21:52:20 22° NE 21:56:23 11° E
Aureole 1 Rocket 4.3 21:50:26 10° SW 21:53:17 29° WNW 21:55:58 10° N
Cosmos 2058 Rocket 3.4 21:49:54 10° N 21:54:13 49° ENE 21:56:51 22° SE
SPOT 1/Viking Rocket 3.9 21:51:40 19° SE 21:55:13 51° ENE 22:00:12 10° N
YAOGAN 11 4.0 21:52:10 18° SSE 21:55:17 77° ENE 21:59:39 10° N
Cosmos 2181 Rocket 4.1 21:49:25 11° S 21:55:24 58° E 22:01:34 10° NNE
Okean 2 3.5 21:54:37 10° SSW 21:58:41 77° W 22:02:48 10° N
Tiangong 2 0.9 21:55:41 10° W 21:58:52 79° S 22:00:58 19° E
Cosmos 1371 Rocket 4.3 21:54:13 10° NNW 21:59:29 64° WSW 22:03:45 15° S
Lacrosse 5 rocket 4.2 21:59:43 10° NNW 22:02:30 15° N 22:05:17 10° NE
ARGOS 3.1 21:58:32 18° SSE 22:02:42 83° ENE 22:08:09 10° NNW
ERS-1 Rocket 3.7 22:01:27 10° S 22:06:15 51° W 22:11:09 10° NNW
Terra 2.8 22:07:56 21° ESE 22:10:14 32° ENE 22:14:28 10° N
SPOT 5 2.6 22:09:28 22° S 22:12:15 81° WSW 22:16:38 10° NNW
H-2A R/B 3.1 22:15:12 24° ESE 22:17:08 35° ENE 22:21:15 10° N
IGS 5A 4.4 22:18:14 26° ESE 22:19:42 33° ENE 22:23:28 10° N
Cosmos 1626 Rocket 3.9 22:26:20 34° SE 22:27:36 45° E 22:31:43 10° NNE
Cosmos 2278 3.8 22:22:20 10° NNW 22:28:01 72° WSW 22:31:15 26° S
Cosmos 2082 Rocket 2.1 22:23:35 14° S 22:28:26 67° ESE 22:34:04 10° NNE
Meteor 1-22 Rocket 4.3 22:27:06 10° N 22:32:19 55° ENE 22:34:39 32° SE
ISS -1.7 22:31:10 10° W 22:34:08 29° NNW 22:37:04 10° NE
USA 229 DEB 4.4 22:27:26 10° NNW 22:34:21 50° NE 22:39:05 21° ESE
USA 229 4.4 22:27:32 10° NNW 22:34:27 50° NE 22:39:11 21° ESE
SL-8 Rocket 4.0 22:28:21 10° N 22:34:39 90° WNW 22:38:28 26° S
Cosmos 2366 rocket 3.9 22:34:16 10° N 22:40:27 75° E 22:43:33 31° SSE
H-2A R/B 2.1 22:40:27 29° S 22:42:59 67° WSW 22:48:02 10° NNW
Cosmos 2228 3.5 22:40:12 10° NNW 22:44:25 54° W 22:46:19 29° SSW
Cosmos 921 Rocket 4.2 22:43:10 10° NNW 22:47:18 37° W 22:49:22 23° SSW
Cosmos 158 Rocket 4.4 22:46:06 37° SE 22:47:27 44° ESE 22:52:33 10° NNE
Cosmos 2369 4.3 22:42:16 10° NW 22:47:47 50° WSW 22:50:41 26° S
Meteor 1-4 Rocket 2.5 22:44:35 10° NNW 22:48:10 76° W 22:48:46 58° SSW
Cosmos 1697 Rocket 2.6 22:42:57 10° NNW 22:48:37 85° ENE 22:50:57 37° SSE
CZ-4C R/B 4.4 22:52:05 26° ENE 22:52:15 27° ENE 22:55:20 10° N
SL-16 R/B 3.8 22:50:01 10° N 22:54:35 24° NE 22:57:37 16° E
CZ-4B R/B 3.9 22:50:51 10° NNE 22:55:44 45° E 22:56:47 39° SE
Cosmos 1656 3.9 22:50:27 10° NNW 22:55:48 59° WSW 22:58:04 34° S
Iridium 2 4.1 22:52:57 10° N 22:56:37 45° E 22:56:44 45° E
Cosmos 1842 3.6 22:59:00 46° E 22:59:00 46° E 23:02:46 10° NNE
Cosmos 1602 Rocket 3.5 23:01:02 43° SSW 23:02:25 78° W 23:06:46 10° N
DMSP B5D2-2 4.2 22:58:19 10° N 23:03:36 74° WNW 23:06:34 27° SSW
Cosmos 1271 Rocket 2.8 23:00:31 10° N 23:04:22 60° ENE 23:04:38 58° E
SL-19 R/B 4.4 23:04:46 59° SE 23:05:27 75° ENE 23:09:16 10° N
Cosmos 1833 Rocket 2.9 23:00:37 13° SW 23:05:41 68° WNW 23:11:19 10° NNE
CZ-4 R/B 3.9 23:05:01 10° NNE 23:10:03 73° ESE 23:11:25 48° S
deb Chang Zheng 4 3.5 23:06:21 10° NNE 23:10:40 88° WNW 23:11:39 53° SSW
Cosmos 1269 Rocket 3.9 23:10:46 43° S 23:12:33 77° ESE 23:17:52 10° NNE
Timation 2 Rocket 3.9 23:08:52 24° SSW 23:12:55 86° ESE 23:19:05 10° NNE
Cosmos 389 Rocket 3.6 23:15:14 10° N 23:17:59 34° NE 23:17:59 34° NE
Cosmos 1953 2.9 23:15:03 10° N 23:18:59 45° ENE 23:19:02 45° E
Cosmos 1420 Rocket 4.3 23:14:49 10° NNW 23:20:00 59° WSW 23:21:26 43° SSW
DELTA 2 DEB (DPAF) 4.1 23:20:03 61° SE 23:20:42 74° ENE 23:25:11 10° N
Cosmos 1048 Rocket 3.9 23:22:40 40° SSW 23:24:33 81° WNW 23:29:46 10° NNE
CZ-2C R/B 4.5 23:23:17 24° E 23:25:07 29° ENE 23:29:56 10° N
CARTOSAT-1 4.4 23:27:22 35° SW 23:28:13 39° W 23:32:17 10° NNW
Cosmos 1110 Rocket 4.4 23:25:33 10° NNW 23:30:42 53° ENE 23:31:52 44° ESE
Cosmos 1766 4.1 23:31:06 10° NNW 23:34:45 39° W 23:35:01 38° WSW
Cosmos 2360 Rocket 4.1 23:30:57 10° N 23:35:14 21° NE 23:38:26 14° E
SL-24 R/B - RUBIN 2 4.5 23:32:22 34° SSW 23:35:33 79° ESE 23:42:05 10° NE
Tiangong 2 3.6 23:32:24 10° W 23:33:11 16° W 23:33:11 16° W
Cosmos 1544 3.5 23:32:40 10° NNW 23:35:56 58° WNW 23:35:56 58° WNW
Cosmos 1980 Rocket 2.3 23:31:14 10° NNW 23:36:51 66° WSW 23:38:08 51° SSW
Lacrosse 5 rocket 3.1 23:38:45 10° NW 23:43:00 33° NNE 23:45:12 22° ENE
SME Rocket 3.5 23:43:00 55° ESE 23:43:50 64° ENE 23:47:58 10° N
Cosmos 2322 Rocket 2.6 23:41:50 10° NNW 23:47:28 57° ENE 23:48:59 43° ESE
Terra 3.2 23:46:49 25° WSW 23:47:58 28° W 23:52:05 10° NW
Nadezhda 3 Rocket 4.1 23:46:50 39° SSW 23:49:18 72° W 23:55:41 10° N
Cosmos 1758 Rocket 3.4 23:50:40 82° ENE 23:50:40 82° ENE 23:54:57 10° N
Cosmos 1470 3.3 23:46:59 10° N 23:50:32 53° NE 23:50:32 53° NE
USA 267 3.2 23:44:38 10° NE 23:51:06 60° SE 23:52:59 44° S
H-2A R/B 3.8 23:52:19 23° WSW 23:53:10 24° W 23:56:53 10° NW
